Weather in Volok

Russia / Tver Oblast     56°51′17″N   32°02′38″E
temp.,
°C
wind,
m/s
gust,
m/s
humid.,
%
clouds,
%
prec.,
mm/h
press.,
hPa
HPBL,
m
15 may, sat
sat1500:00+10ese31097100 0.0 1009232
03:00+10e3997100 0.0 1007206
06:00+10e2798100 0.1 1006205
09:00+13sse3588100 0.3 1006487
12:00+15s357795 0.1 1006726
15:00+19s455829 0.8 10041528
18:00+17s358076 1.9 1004747
21:00+13sw239529 4.9 100464
16 may, sun
sun1600:00+11ssw379820 0.4 1005158
03:00+10sw27977 0.4 1006149
06:00+10sw269822 0.0 1008169
09:00+15wsw348543 0.0 1009564
12:00+19wsw455122 0.0 10101304
15:00+20wsw34465 0.0 10101672
18:00+20w245152 0.0 10101424
21:00+15s237235 0.0 101151
17 may, mon
mon1700:00+11s22925 0.0 101219
03:00+11sse239684 0.0 101364
06:00+11se2894100 0.0 1012216
09:00+17se4871100 0.0 1012583
12:00+21se5755100 0.0 10101569
15:00+22ese4647100 0.0 10091747
18:00+18ese41182100 2.9 1006677
21:00+17se41391100 8.3 1004419
18 may, tue
tue1800:00+15ese3129797 2.6 1004320
03:00+16ese41295100 2.6 1002431
06:00+15ese4129698 0.3 1000515
09:00+18se5138691 0.3 999832
12:00+20sse71573100 0.4 9981601
15:00+15sse81489100 0.6 9991118
18:00+15ssw61276100 0.1 10031071
21:00+12sse249164 0.1 100593
19 may, wed
wed1900:00+11sw269926 0.0 1006171
03:00+9w119815 0.0 100610
06:00+9nw139598 0.0 1006115
09:00+13nw237594 0.0 1005485
12:00+12w5783100 0.4 1005722
15:00+9wnw41094100 3.3 1005420
18:00+9nw41195100 8.9 1005588
21:00+9wnw3995100 10.0 1005368